{"data":{"norad_id":63029,"epoch":"2026-09-21T22:50:35.373120Z","epoch_age_seconds":39731,"freshness":"FRESH","line1":"1 63029U 25034A   26264.95179830  .00010175  00000+0  31195-3 0  9991","line2":"2 63029  53.1589  76.5832 0001169  83.9264 276.1872 15.34392419 88991","mean_motion":15.34392419,"eccentricity":0.0001169,"inclination_deg":53.1589,"raan_deg":76.5832,"arg_perigee_deg":83.9264,"mean_anomaly_deg":276.1872,"bstar":0.00031195,"rev_number":8899,"period_min":93.848221756627,"perigee_km":461.92607577138,"apogee_km":463.52546948762,"semimajor_km":6840.8627726295,"source":"CELESTRAK","updated_at":"2026-09-22T09:00:49.743156Z"}}